| time (UTC) | temp F | wind direction | speed knots | gust knots | rain 1hr in | rain 24hr in | rain mn in | humidity % | barometer mb |
| 20260904204511 | 89 | 159 | 0.9 | 6.1 | 0.00 | 0.18 | 0.17 | 65 | 1013.1 |
| 20260904203009 | 90 | 183 | 3.5 | 6.1 | 0.00 | 0.19 | 0.17 | 66 | 1013.4 |
| 20260904201507 | 89 | 200 | 2.6 | 4.3 | 0.00 | 0.20 | 0.17 | 71 | 1013.6 |
| 20260904200005 | 87 | 221 | 0.9 | 6.1 | 0.00 | 0.22 | 0.17 | 71 | 1013.6 |
| 20260904194503 | 86 | 180 | 1.7 | 6.1 | 0.00 | 0.26 | 0.17 | 73 | 1013.7 |
| 20260904193003 | 85 | 265 | 1.7 | 7.8 | 0.05 | 0.30 | 0.17 | 76 | 1013.9 |
| 20260904192207 | 83 | 269 | 4.3 | 7.8 | 0.14 | 0.33 | 0.17 | 80 | 1014.1 |
| 20260904190002 | 82 | 175 | 2.6 | 6.1 | 0.14 | 0.22 | 0.17 | 85 | 1014.3 |
| 20260904184503 | 78 | 161 | 0.0 | 6.1 | 0.14 | 0.24 | 0.17 | 87 | 1014.8 |
| 20260904183003 | 78 | 228 | 0.9 | 7.8 | 0.09 | 0.24 | 0.12 | 80 | 1015.5 |
| 20260904181503 | 85 | 241 | 2.6 | 13.9 | 0.00 | 0.25 | 0.03 | 65 | 1015.2 |
| 20260904180004 | 87 | 228 | 1.7 | 7.8 | 0.00 | 0.29 | 0.03 | 71 | 1015.0 |
| 20260904174502 | 88 | 164 | 2.6 | 7.8 | 0.00 | 0.34 | 0.03 | 72 | 1014.9 |
| 20260904173003 | 87 | 133 | 0.9 | 4.3 | 0.00 | 0.38 | 0.03 | 76 | 1014.9 |
| 20260904171504 | 86 | 128 | 1.7 | 4.3 | 0.00 | 0.41 | 0.03 | 79 | 1015.3 |
| 20260904170001 | 86 | 128 | 0.9 | 2.6 | 0.00 | 0.44 | 0.03 | 80 | 1015.3 |
| 20260904164503 | 85 | 128 | 0.9 | 2.6 | 0.00 | 0.59 | 0.03 | 81 | 1015.3 |
| 20260904163005 | 85 | 128 | 1.7 | 2.6 | 0.00 | 0.69 | 0.03 | 82 | 1015.3 |
| 20260904161459 | 85 | 128 | 0.0 | 2.6 | 0.00 | 0.69 | 0.03 | 83 | 1015.2 |
| 20260904160009 | 85 | 128 | 0.9 | 6.1 | 0.00 | 0.69 | 0.03 | 83 | 1015.1 |
| 20260904154456 | 85 | 128 | 2.6 | 7.8 | 0.00 | 0.69 | 0.03 | 84 | 1015.2 |
| 20260904152956 | 84 | 69 | 2.6 | 6.1 | 0.00 | 0.69 | 0.03 | 84 | 1014.9 |
| 20260904152148 | 85 | 31 | 1.7 | 6.1 | 0.00 | 0.69 | 0.03 | 86 | 1014.9 |
| 20260904150701 | 83 | 131 | 1.7 | 6.1 | 0.00 | 0.69 | 0.03 | 88 | 1014.9 |
| 20260904145153 | 82 | 131 | 3.5 | 6.1 | 0.00 | 0.69 | 0.03 | 91 | 1014.9 |
| 20260904143651 | 81 | 128 | 0.9 | 6.1 | 0.00 | 0.69 | 0.03 | 92 | 1014.9 |
| 20260904141454 | 80 | 128 | 2.6 | 4.3 | 0.00 | 0.69 | 0.03 | 92 | 1014.7 |
| 20260904135954 | 80 | 128 | 1.7 | 6.1 | 0.00 | 0.69 | 0.03 | 92 | 1014.6 |
| 20260904134454 | 79 | 128 | 3.5 | 7.8 | 0.00 | 0.69 | 0.03 | 92 | 1014.5 |
| 20260904132953 | 78 | 97 | 0.9 | 2.6 | 0.00 | 0.69 | 0.03 | 92 | 1014.4 |
| 20260904132202 | 78 | 97 | 0.0 | 0.0 | 0.00 | 0.69 | 0.03 | 92 | 1014.2 |
| 20260904130708 | 78 | 97 | 0.0 | 0.0 | 0.00 | 0.69 | 0.03 | 92 | 1014.3 |
| 20260904124452 | 78 | 97 | 0.0 | 2.6 | 0.00 | 0.69 | 0.03 | 92 | 1014.1 |
| 20260904122952 | 78 | 97 | 0.0 | 1.7 | 0.00 | 0.69 | 0.03 | 92 | 1013.9 |
| 20260904121452 | 77 | 97 | 0.0 | 1.7 | 0.00 | 0.69 | 0.03 | 92 | 1013.7 |
| 20260904115951 | 77 | 97 | 0.0 | 1.7 | 0.00 | 0.69 | 0.03 | 92 | 1013.5 |
| 20260904114451 | 78 | 97 | 0.0 | 1.7 | 0.00 | 0.69 | 0.03 | 92 | 1013.4 |
| 20260904113656 | 78 | 97 | 0.0 | 1.7 | 0.00 | 0.69 | 0.03 | 92 | 1013.5 |
| 20260904112147 | 78 | 97 | 0.0 | 1.7 | 0.00 | 0.69 | 0.03 | 92 | 1013.5 |
| 20260904110645 | 78 | 97 | 0.0 | 2.6 | 0.00 | 0.69 | 0.03 | 92 | 1013.4 |
| 20260904105153 | 78 | 97 | 0.0 | 1.7 | 0.00 | 0.69 | 0.03 | 92 | 1013.2 |
| 20260904102949 | 78 | 97 | 0.0 | 1.7 | 0.00 | 0.69 | 0.03 | 92 | 1013.2 |
| 20260904101449 | 78 | 97 | 0.0 | 0.0 | 0.00 | 0.69 | 0.03 | 92 | 1013.0 |
| 20260904095949 | 78 | 97 | 0.0 | 0.0 | 0.00 | 0.69 | 0.03 | 92 | 1013.0 |
| 20260904094448 | 78 | 97 | 0.0 | 0.0 | 0.00 | 0.69 | 0.03 | 92 | 1012.9 |
| 20260904092949 | 78 | 97 | 0.0 | 1.7 | 0.00 | 0.69 | 0.03 | 92 | 1012.8 |
| 20260904091448 | 78 | 97 | 0.9 | 1.7 | 0.01 | 0.69 | 0.03 | 92 | 1012.8 |
| 20260904090654 | 78 | 97 | 0.0 | 1.7 | 0.01 | 0.68 | 0.03 | 91 | 1012.8 |
| 20260904084447 | 78 | 97 | 0.0 | 1.7 | 0.02 | 0.68 | 0.03 | 91 | 1013.0 |
| 20260904082947 | 79 | 97 | 0.0 | 1.7 | 0.03 | 0.68 | 0.03 | 91 | 1013.0 |
| 20260904081446 | 79 | 97 | 0.0 | 0.0 | 0.02 | 0.68 | 0.02 | 91 | 1013.0 |
| 20260904075947 | 79 | 97 | 0.0 | 0.0 | 0.02 | 0.66 | 0.02 | 91 | 1013.0 |
| 20260904075137 | 79 | 97 | 0.0 | 1.7 | 0.01 | 0.66 | 0.01 | 91 | 1013.0 |
| 20260904072945 | 79 | 97 | 0.0 | 1.7 | 0.00 | 0.66 | 0.00 | 91 | 1012.9 |
| 20260904071445 | 79 | 97 | 0.0 | 1.7 | 0.00 | 0.66 | 0.00 | 91 | 1013.0 |
| 20260904065946 | 78 | 97 | 0.0 | 0.0 | 0.00 | 0.66 | 0.00 | 91 | 1013.0 |
| 20260904065142 | 78 | 97 | 0.0 | 0.0 | 0.00 | 0.66 | 0.00 | 91 | 1013.1 |
| 20260904062944 | 78 | 97 | 0.0 | 0.0 | 0.00 | 0.66 | 0.00 | 91 | 1013.2 |
| 20260904061444 | 78 | 97 | 0.0 | 1.7 | 0.00 | 0.66 | 0.00 | 91 | 1013.1 |
| 20260904055944 | 78 | 97 | 0.0 | 1.7 | 0.00 | 0.67 | 0.00 | 91 | 1013.2 |
| 20260904055141 | 78 | 97 | 1.7 | 2.6 | 0.00 | 0.68 | 0.00 | 91 | 1013.3 |
| 20260904052943 | 78 | 97 | 1.7 | 2.6 | 0.00 | 0.69 | 0.00 | 91 | 1013.2 |
| 20260904051444 | 78 | 97 | 0.9 | 1.7 | 0.00 | 0.70 | 0.00 | 91 | 1013.2 |
| 20260904045943 | 78 | 97 | 0.0 | 1.7 | 0.00 | 0.70 | 0.70 | 91 | 1013.2 |
| 20260904044442 | 78 | 97 | 0.0 | 1.7 | 0.00 | 0.70 | 0.70 | 91 | 1013.2 |
| 20260904042942 | 78 | 97 | 0.0 | 1.7 | 0.00 | 0.70 | 0.70 | 91 | 1013.2 |
| 20260904041441 | 78 | 97 | 0.0 | 1.7 | 0.00 | 0.70 | 0.70 | 91 | 1013.2 |
| 20260904035941 | 78 | 97 | 0.0 | 0.0 | 0.00 | 0.70 | 0.70 | 91 | 1013.1 |
| 20260904034439 | 78 | 97 | 0.0 | 1.7 | 0.00 | 0.70 | 0.70 | 91 | 1013.1 |
| 20260904032941 | 78 | 97 | 0.9 | 1.7 | 0.00 | 0.70 | 0.70 | 91 | 1013.1 |
| 20260904031440 | 78 | 97 | 0.0 | 0.0 | 0.00 | 0.70 | 0.70 | 91 | 1013.2 |
| 20260904031348 | 78 | 97 | 0.0 | 0.0 | 0.00 | 0.70 | 0.70 | 91 | 1013.0 |
| 20260904024439 | 78 | 97 | 0.0 | 1.7 | 0.00 | 0.70 | 0.70 | 91 | 1013.1 |
| 20260904022939 | 78 | 97 | 0.0 | 1.7 | 0.00 | 0.70 | 0.70 | 91 | 1012.9 |
| 20260904022133 | 78 | 97 | 0.0 | 1.7 | 0.00 | 0.70 | 0.70 | 91 | 1012.6 |
| 20260904015939 | 78 | 97 | 0.0 | 1.7 | 0.00 | 0.70 | 0.70 | 90 | 1012.6 |
| 20260904014437 | 78 | 97 | 0.0 | 1.7 | 0.00 | 0.70 | 0.70 | 90 | 1012.4 |
| 20260904012937 | 78 | 97 | 0.0 | 1.7 | 0.00 | 0.72 | 0.70 | 90 | 1012.3 |
| 20260904012132 | 78 | 97 | 0.0 | 2.6 | 0.00 | 0.73 | 0.70 | 90 | 1012.2 |
| 20260904005937 | 78 | 97 | 0.0 | 0.0 | 0.00 | 0.73 | 0.70 | 90 | 1012.2 |
| 20260904004437 | 78 | 97 | 0.0 | 0.0 | 0.00 | 0.73 | 0.70 | 90 | 1012.3 |
| 20260904003631 | 78 | 97 | 0.0 | 1.7 | 0.00 | 0.73 | 0.70 | 89 | 1012.4 |
| 20260904001436 | 79 | 97 | 0.0 | 1.7 | 0.00 | 0.73 | 0.70 | 90 | 1012.4 |
| 20260903235934 | 79 | 97 | 0.0 | 0.0 | 0.00 | 0.73 | 0.70 | 89 | 1012.6 |
| 20260903235130 | 78 | 97 | 0.0 | 2.6 | 0.00 | 1.17 | 0.70 | 90 | 1012.5 |
| 20260903232931 | 78 | 97 | 1.7 | 2.6 | 0.00 | 1.62 | 0.70 | 90 | 1012.6 |
| 20260903231432 | 78 | 97 | 0.0 | 2.6 | 0.00 | 1.62 | 0.70 | 90 | 1012.6 |
| 20260903225931 | 78 | 97 | 0.0 | 1.7 | 0.00 | 1.62 | 0.70 | 90 | 1012.5 |
| 20260903225140 | 78 | 97 | 0.0 | 2.6 | 0.00 | 1.69 | 0.70 | 90 | 1012.6 |
| 20260903222931 | 78 | 97 | 0.0 | 4.3 | 0.00 | 1.70 | 0.70 | 90 | 1012.7 |
| 20260903221431 | 78 | 102 | 0.9 | 2.6 | 0.00 | 1.80 | 0.70 | 90 | 1012.8 |
| 20260903220638 | 78 | 102 | 0.9 | 2.6 | 0.00 | 1.92 | 0.70 | 90 | 1013.0 |
| 20260903215128 | 78 | 102 | 0.9 | 2.6 | 0.01 | 1.92 | 0.70 | 91 | 1013.2 |
| 20260903212932 | 78 | 102 | 0.9 | 2.6 | 0.02 | 1.92 | 0.70 | 91 | 1013.4 |
| 20260903211431 | 77 | 102 | 2.6 | 4.3 | 0.04 | 1.92 | 0.70 | 90 | 1013.5 |